CW1767 Weather Reports


time (UTC)temp
C
wind
direction
speed
KPH
gust
KPH
rain 1hr
cm
rain 24hr
cm
rain mn
cm
humidity
%
barometer
mb
20260507050058 16 150 0.0 0.0 0.00 0.13 0.00 90 1009.0
20260507044600 16 150 0.0 0.0 0.00 0.13 0.00 90 1009.0
20260507043053 16 150 0.0 0.0 0.00 0.13 0.00 90 1009.3
20260507041559 16 150 0.0 0.0 0.00 0.13 0.00 89 1009.4
20260507040046 16 150 0.0 0.0 0.00 0.13 0.00 90 1009.3
20260507034555 16 150 0.0 0.0 0.00 0.13 0.13 89 1008.8
20260507033046 16 150 0.0 0.0 0.00 0.13 0.13 89 1008.4
20260507031555 16 150 0.0 0.0 0.00 0.13 0.13 88 1008.5
20260507030050 17 150 0.0 0.0 0.00 0.13 0.13 87 1008.7
20260507024543 17 150 0.0 0.0 0.00 0.13 0.13 87 1008.9
20260507023038 17 150 0.0 0.0 0.00 0.13 0.13 86 1009.1
20260507021537 18 150 0.0 0.0 0.00 0.13 0.13 85 1009.0
20260507020036 18 150 0.0 0.0 0.00 0.13 0.13 84 1009.4
20260507014546 18 150 0.0 0.0 0.00 0.13 0.13 83 1009.2
20260507013036 18 150 0.0 0.0 0.00 0.13 0.13 82 1009.1
20260507011535 19 150 0.0 0.0 0.00 0.13 0.13 81 1009.2
20260507010040 20 150 0.0 0.0 0.00 0.13 0.13 80 1009.0
20260507004535 20 146 0.0 1.6 0.00 0.13 0.13 79 1009.3
20260507003035 20 182 0.0 0.0 0.00 0.13 0.13 79 1008.8
20260507001537 20 172 0.0 0.0 0.00 0.13 0.13 78 1008.7
20260507000038 20 173 0.0 0.0 0.00 0.13 0.13 78 1008.7
20260506234533 20 151 0.0 0.0 0.00 0.13 0.13 77 1008.6
20260506233036 20 151 0.0 0.0 0.00 0.13 0.13 76 1008.5
20260506231532 21 160 0.0 0.0 0.00 0.13 0.13 76 1008.4
20260506230031 21 149 0.0 1.6 0.00 0.13 0.13 75 1008.4
20260506224531 21 155 0.0 0.0 0.00 0.13 0.13 75 1008.5
20260506223030 21 194 0.0 1.6 0.00 0.13 0.13 74 1008.5
20260506221528 21 186 0.0 3.2 0.00 0.13 0.13 74 1008.7
20260506220028 21 159 0.0 1.6 0.00 0.13 0.13 75 1008.7
20260506214527 21 177 0.0 1.6 0.00 0.13 0.13 76 1008.6
20260506213027 21 175 0.0 1.6 0.00 0.13 0.13 75 1008.9
20260506211526 21 164 0.0 1.6 0.00 0.13 0.13 75 1008.8
20260506210028 21 182 0.0 3.2 0.00 0.13 0.13 74 1008.7
20260506204526 21 148 0.0 3.2 0.00 0.13 0.13 75 1008.8
20260506203025 21 174 0.0 3.2 0.00 0.13 0.13 75 1008.7
20260506201523 21 155 0.0 4.8 0.00 0.13 0.13 75 1009.0
20260506200023 21 171 0.0 4.8 0.00 0.13 0.13 75 1009.1
20260506194522 21 167 0.0 11.3 0.00 0.13 0.13 76 1009.1
20260506193020 21 114 0.0 4.8 0.00 0.13 0.13 76 1008.9
20260506191520 21 121 0.0 4.8 0.00 0.13 0.13 76 1009.1
20260506190018 21 120 1.6 6.4 0.00 0.13 0.13 76 1009.6
20260506184516 20 182 0.0 3.2 0.00 0.13 0.13 79 1009.9
20260506183016 20 126 0.0 3.2 0.00 0.13 0.13 81 1009.9
20260506181514 19 154 0.0 3.2 0.03 0.13 0.13 83 1010.2
20260506180013 19 115 0.0 6.4 0.05 0.13 0.13 85 1010.1
20260506174513 18 143 0.0 4.8 0.08 0.13 0.13 87 1010.3
20260506173013 18 115 0.0 3.2 0.08 0.13 0.13 88 1010.2
20260506171511 18 111 0.0 4.8 0.08 0.10 0.10 87 1010.5
20260506170008 18 112 0.0 4.8 0.05 0.08 0.08 86 1010.7
20260506164506 18 115 0.0 4.8 0.05 0.05 0.05 85 1011.2
20260506163007 18 134 0.0 6.4 0.05 0.05 0.05 84 1011.5
20260506161504 18 125 0.0 3.2 0.03 0.03 0.03 83 1011.5
20260506160003 19 119 0.0 4.8 0.03 0.03 0.03 80 1011.8
20260506154501 20 119 0.0 4.8 0.00 0.00 0.00 75 1011.9
20260506153112 20 121 0.0 3.2 0.00 0.00 0.00 74 1011.8
20260506151601 20 102 0.0 4.8 0.00 0.00 0.00 73 1011.7
20260506144558 21 144 0.0 9.7 0.00 0.00 0.00 70 1011.8
20260506143107 21 184 1.6 12.9 0.00 0.00 0.00 70 1011.5
20260506141557 21 192 1.6 6.4 0.00 0.00 0.00 70 1011.7
20260506140058 21 205 1.6 6.4 0.00 0.00 0.00 70 1011.7
20260506134555 21 47 1.6 6.4 0.00 0.00 0.00 70 1011.7
20260506133055 20 155 0.0 8.0 0.00 0.00 0.00 70 1011.7
20260506131552 20 88 1.6 9.7 0.00 0.00 0.00 71 1011.8
20260506130050 20 122 0.0 8.0 0.00 0.00 0.00 72 1011.9
20260506124547 20 115 0.0 6.4 0.00 0.00 0.00 72 1011.9
20260506123046 19 74 0.0 8.0 0.00 0.00 0.00 72 1012.3
20260506121546 19 54 0.0 4.8 0.00 0.00 0.00 73 1012.0
20260506120055 18 84 0.0 4.8 0.00 0.00 0.00 74 1012.0
20260506114555 18 130 0.0 6.4 0.00 0.00 0.00 76 1011.9
20260506113044 18 65 0.0 4.8 0.00 0.00 0.00 76 1011.9
20260506111544 17 69 0.0 6.4 0.00 0.00 0.00 76 1011.8
20260506110049 17 89 0.0 6.4 0.00 0.00 0.00 76 1011.8
20260506104543 17 72 0.0 4.8 0.00 0.00 0.00 76 1011.9
20260506103042 17 115 0.0 3.2 0.00 0.00 0.00 76 1011.9
20260506101543 17 69 0.0 4.8 0.00 0.00 0.00 75 1011.9
20260506100045 17 102 0.0 6.4 0.00 0.00 0.00 75 1011.8
20260506094554 17 111 0.0 3.2 0.00 0.00 0.00 75 1011.7
20260506093038 17 119 0.0 3.2 0.00 0.00 0.00 74 1011.8
20260506091538 17 58 0.0 4.8 0.00 0.00 0.00 74 1011.8
20260506090139 17 111 0.0 3.2 0.00 0.00 0.00 73 1011.8
20260506084535 17 128 0.0 6.4 0.00 0.00 0.00 72 1011.7
20260506083034 17 137 0.0 4.8 0.00 0.00 0.00 72 1011.9
20260506081535 17 126 0.0 4.8 0.00 0.00 0.00 71 1011.9
20260506073033 18 125 0.0 6.4 0.00 0.00 0.00 72 1012.0
20260506071533 18 113 0.0 4.8 0.00 0.00 0.00 72 1012.1
20260506061532 18 19 0.0 6.4 0.00 0.00 0.00 72 1012.4